Date String (YYYY-MM-DD hh:mm:ss) UTC,Instrument flags,absolute air pressure of the measurement (hPa),sample flow rate (lpm),inlet stack bypass flow (lpm),air temperature of the measurement (°C),ambient temperature measured by the external sensor (°C),aerosol sample conditioner tube jacket temperature (°C),OPC LED temperature (°C),internal box temperature (°C),relative humidity of the measurement (%),span deviation,mass concentration of particles derived from Lorenz-Mie calculation of OPC scattering (μg/m³),mass concentration of particles derived from Lorenz-Mie calculation of OPC scattering (μg/m³),mass concentration of particles derived from Lorenz-Mie calculation of OPC scattering (μg/m³)
DateTimeUTC,F1_M11,P_M11,Q1_M11,Q2_M11,T1_M11,T2_M11,T3_M11,T4_M11,T5_M11,U1_M11,ZSPAN_M11,X0_M11,X2_M11,X1_M11
2024-04-12 17:00:00,SystemResetWarning,0830.3,5.00,000.00,024.4,023.9,000.0,032.7,026.3,015.9,0000.0,0023.32,0005.52,0003.16
2024-04-12 17:01:00,SystemResetWarning,0830.3,5.00,000.00,024.5,024.0,000.0,032.7,026.3,015.2,0000.0,0022.68,0005.45,0003.20
2024-04-12 17:02:00,SystemResetWarning,0830.3,4.99,000.00,024.5,024.0,000.0,032.7,026.3,015.1,0000.0,0021.97,0005.73,0003.45
2024-04-12 17:03:00,SystemResetWarning,0830.3,4.99,000.00,024.5,024.0,000.0,032.7,026.3,015.0,0000.0,0021.50,0006.11,0003.82
2024-04-12 17:04:00,SystemResetWarning,0830.3,5.00,000.00,024.5,024.0,000.0,032.8,026.3,015.2,0004.0,0022.69,0006.60,0004.28
2024-04-12 17:05:00,SystemResetWarning,0830.3,5.00,000.00,024.5,024.0,000.0,032.8,026.3,014.9,0004.6,0022.98,0007.17,0004.85
2024-04-12 17:06:00,SystemResetWarning,0830.3,5.01,000.00,024.5,024.0,000.0,032.8,026.3,014.6,0004.8,0023.16,0007.97,0005.65
2024-04-12 17:07:00,SystemResetWarning,0830.3,5.01,000.00,024.6,024.1,000.0,032.8,026.4,014.5,0004.9,0022.92,0008.84,0006.51
2024-04-12 17:08:00,SystemResetWarning,0830.4,5.00,000.00,024.6,024.1,000.0,032.8,026.4,014.8,0004.8,0023.37,0009.43,0007.17
2024-04-12 17:09:00,SystemResetWarning,0830.3,5.00,000.00,024.6,024.1,000.0,032.8,026.4,014.9,0004.9,0023.98,0010.48,0008.23
2024-04-12 17:10:00,SystemResetWarning,0830.3,5.00,000.00,024.6,024.1,000.0,032.8,026.4,014.9,0004.9,0024.72,0011.63,0009.29
2024-04-12 17:11:00,SystemResetWarning,0830.4,5.00,000.00,024.6,024.1,000.0,032.9,026.4,014.7,0004.9,0025.81,0012.76,0010.32
2024-04-12 17:12:00,SystemResetWarning,0830.4,4.99,000.00,024.6,024.1,000.0,032.9,026.5,014.8,0004.9,0027.27,0014.07,0011.55
2024-04-12 17:13:00,SystemResetWarning,0830.4,5.00,000.00,024.7,024.1,000.0,032.9,026.5,015.2,0004.9,0028.59,0014.91,0012.41
2024-04-12 17:14:00,SystemResetWarning,0830.3,4.99,000.00,024.7,024.2,000.0,032.9,026.5,015.0,0004.9,0029.14,0015.51,0013.04
2024-04-12 17:15:00,SystemResetWarning,0830.3,5.00,000.00,024.7,024.2,000.0,032.9,026.5,015.0,0004.9,0029.22,0016.26,0013.82
2024-04-12 17:16:00,SystemResetWarning,0830.3,5.00,000.00,024.7,024.2,000.0,032.9,026.5,014.6,0004.8,0029.84,0017.03,0014.57
2024-04-12 17:17:00,SystemResetWarning,0830.3,4.99,000.00,024.7,024.2,000.0,033.0,026.5,014.8,0004.7,0030.01,0018.05,0015.59
2024-04-12 17:18:00,SystemResetWarning,0830.3,5.00,000.00,024.7,024.2,000.0,033.0,026.5,015.1,0004.8,0031.10,0018.62,0016.13
2024-04-12 17:19:00,SystemResetWarning,0830.3,5.01,000.00,024.7,024.2,000.0,033.0,026.6,014.9,0004.8,0030.68,0018.83,0016.32
2024-04-12 17:20:00,SystemResetWarning,0830.3,5.01,000.00,024.8,024.2,000.0,033.0,026.6,014.7,0004.9,0031.73,0018.86,0016.35
2024-04-12 17:21:00,SystemResetWarning,0830.3,5.00,000.00,024.8,024.2,000.0,033.0,026.6,015.0,0004.9,0032.31,0018.39,0015.92
2024-04-12 17:22:00,SystemResetWarning,0830.3,5.00,000.00,024.8,024.3,000.0,033.0,026.6,015.0,0004.9,0031.89,0018.02,0015.60
2024-04-12 17:23:00,SystemResetWarning,0830.3,5.00,000.00,024.8,024.3,000.0,033.1,026.6,015.2,0004.9,0030.99,0017.38,0014.95
2024-04-12 17:24:00,SystemResetWarning,0830.2,5.00,000.00,024.8,024.3,000.0,033.1,026.6,015.1,0005.0,0030.36,0016.96,0014.51
2024-04-12 17:25:00,SystemResetWarning,0830.2,5.00,000.00,024.9,024.3,000.0,033.1,026.6,015.3,0005.2,0030.60,0016.73,0014.23
2024-04-12 17:26:00,SystemResetWarning,0830.2,5.00,000.00,024.9,024.3,000.0,033.1,026.7,015.2,0005.2,0031.95,0016.24,0013.72
2024-04-12 17:27:00,SystemResetWarning,0830.2,5.00,000.00,024.9,024.4,000.0,033.1,026.7,015.1,0005.3,0032.15,0015.72,0013.17
2024-04-12 17:28:00,SystemResetWarning,0830.2,5.00,000.00,024.9,024.4,000.0,033.1,026.7,015.0,0005.4,0032.10,0014.80,0012.21
2024-04-12 17:29:00,SystemResetWarning,0830.2,4.99,000.00,024.9,024.4,000.0,033.1,026.7,014.8,0005.5,0032.47,0013.69,0011.12
2024-04-12 17:30:00,SystemResetWarning,0830.2,5.00,000.00,025.0,024.4,000.0,033.2,026.8,015.2,0005.5,0033.25,0012.83,0010.34
2024-04-12 17:31:00,SystemResetWarning,0830.3,5.01,000.00,025.0,024.5,000.0,033.2,026.8,014.8,0005.5,0032.55,0011.93,0009.52
2024-04-12 17:32:00,SystemResetWarning,0830.2,5.01,000.00,025.0,024.5,000.0,033.2,026.8,015.3,0005.5,0031.74,0011.39,0009.01
2024-04-12 17:33:00,SystemResetWarning,0830.2,5.00,000.00,025.0,024.5,000.0,033.2,026.8,014.9,0005.5,0031.45,0010.82,0008.48
2024-04-12 17:34:00,SystemResetWarning,0830.2,4.99,000.00,025.0,024.6,000.0,033.3,026.8,014.7,0005.5,0031.81,0010.17,0007.86
2024-04-12 17:35:00,SystemResetWarning,0830.1,4.99,000.00,025.1,024.6,000.0,033.3,026.8,014.5,0005.5,0030.85,0009.45,0007.15
2024-04-12 17:36:00,SystemResetWarning,0830.1,5.00,000.00,025.1,024.6,000.0,033.3,026.9,014.7,0005.3,0030.08,0008.78,0006.48
2024-04-12 17:37:00,SystemResetWarning,0830.1,5.00,000.00,025.1,024.6,000.0,033.3,026.9,014.5,0005.2,0027.94,0008.17,0005.91
2024-04-12 17:38:00,SystemResetWarning,0830.1,5.01,000.00,025.1,024.7,000.0,033.3,026.9,014.7,0005.4,0026.62,0007.43,0005.21
2024-04-12 17:39:00,SystemResetWarning,0830.1,5.00,000.00,025.1,024.7,000.0,033.3,026.9,014.8,0000.4,0025.60,0006.60,0004.37
2024-04-12 17:40:00,SystemResetWarning,0830.1,5.00,000.00,025.2,024.7,000.0,033.4,027.0,014.6,0000.0,0023.81,0006.31,0004.08
2024-04-12 17:41:00,SystemResetWarning,0830.1,4.98,000.00,025.2,024.7,000.0,033.4,027.0,014.8,0000.0,0022.98,0006.31,0004.04
2024-04-12 17:42:00,SystemResetWarning,0830.1,4.99,000.00,025.2,024.8,000.0,033.4,027.0,014.7,0000.0,0022.64,0006.29,0003.93
2024-04-12 17:43:00,SystemResetWarning,0830.1,5.01,000.00,025.2,024.8,000.0,033.4,027.0,014.9,0000.0,0021.51,0006.16,0003.79
2024-04-12 17:44:00,SystemResetWarning,0830.1,5.00,000.00,025.3,024.8,000.0,033.4,027.1,014.1,0000.0,0021.05,0006.03,0003.70
2024-04-12 17:45:00,SystemResetWarning,0830.1,4.98,000.00,025.3,024.8,000.0,033.5,027.1,014.2,0000.0,0019.95,0005.98,0003.66
2024-04-12 17:46:00,SystemResetWarning,0830.1,5.00,000.00,025.3,024.8,000.0,033.5,027.1,014.1,0000.0,0020.11,0005.92,0003.64
2024-04-12 17:47:00,SystemResetWarning,0830.1,5.00,000.00,025.3,024.8,000.0,033.5,027.1,013.4,0000.0,0020.88,0005.83,0003.61
2024-04-12 17:48:00,SystemResetWarning,0830.0,5.01,000.00,025.3,024.9,000.0,033.5,027.1,013.3,0000.0,0022.19,0005.78,0003.59
2024-04-12 17:49:00,SystemResetWarning,0830.0,5.01,000.00,025.3,024.9,000.0,033.5,027.2,013.4,0000.0,0022.36,0005.81,0003.56
2024-04-12 17:50:00,SystemResetWarning,0830.0,5.01,000.00,025.4,024.9,000.0,033.6,027.2,013.3,0000.0,0022.23,0005.77,0003.52
2024-04-12 17:51:00,SystemResetWarning,0830.0,5.00,000.00,025.4,024.9,000.0,033.6,027.2,013.6,0000.0,0022.54,0005.80,0003.49
2024-04-12 17:52:00,SystemResetWarning,0830.0,4.99,000.00,025.4,024.9,000.0,033.6,027.2,013.6,0000.0,0021.96,0005.77,0003.48
2024-04-12 17:53:00,SystemResetWarning,0830.0,5.00,000.00,025.4,025.0,000.0,033.6,027.2,013.4,0000.0,0022.08,0005.78,0003.47
2024-04-12 17:54:00,SystemResetWarning,0830.0,5.00,000.00,025.5,025.0,000.0,033.6,027.3,013.5,0000.0,0022.41,0005.80,0003.45
2024-04-12 17:55:00,SystemResetWarning,0830.0,4.99,000.00,025.5,025.0,000.0,033.7,027.3,013.4,0000.0,0022.44,0005.82,0003.40
2024-04-12 17:56:00,SystemResetWarning,0829.9,5.00,000.00,025.5,025.0,000.0,033.7,027.3,013.5,0000.0,0022.10,0005.76,0003.35
2024-04-12 17:57:00,SystemResetWarning,0829.9,4.99,000.00,025.5,025.0,000.0,033.7,027.3,012.8,0000.0,0021.30,0005.70,0003.31
2024-04-12 17:58:00,SystemResetWarning,0829.9,5.00,000.00,025.5,025.1,000.0,033.7,027.3,012.0,0000.0,0020.79,0005.70,0003.28
2024-04-12 17:59:00,SystemResetWarning,0829.8,5.01,000.00,025.6,025.1,000.0,033.8,027.4,011.5,0000.0,0020.81,0005.64,0003.23
